Regional Weather Roundup
Issued by NWS

Home | Current Version | Previous Version | Text Only | Print | Product List | Glossary Off
Versions: 1 2 3 4 5 6 7 8 9 10 11 12 13 14 15 16 17 18 19 20 21 22 23 24 25 26 27 28 29 30 31 32 33 34 35 36 37 38 39 40 41 42 43 44 45 46 47 48 49 50

000
ASUS43 KLMK 311202
RWRKY
KENTUCKY REGIONAL WEATHER ROUNDUP
NATIONAL WEATHER SERVICE LOUISVILLE KY
800 AM EDT FRI OCT 31 2014

NOTE "FAIR" INDICATES FEW OR NO CLOUDS BELOW 12,000 FEET
WITH NO SIGNIFICANT WEATHER AND/OR OBSTRUCTIONS TO VISIBILITY.

KYZ001>023-026-027-061>063-070>075-311300-
WESTERN AND SOUTH CENTRAL KENTUCKY

CITY           SKY/WX    TMP DP  RH WIND       PRES   REMARKS
PADUCAH        CLOUDY    51  49  92 NW5       30.04R
HENDERSON      CLOUDY    48  43  81 N5        30.04R
OWENSBORO      CLOUDY    47  45  93 NE7       30.04R
HOPKINSVILLE   CLOUDY    49  49 100 N2        30.00F
BOWLING GREEN  LGT RAIN  49  44  83 CALM      30.02R
GLASGOW        LGT RAIN  46  46 100 CALM      30.00R
$$

KYZ024-025-028>034-038-045-046-053-311300-
NORTH CENTRAL KENTUCKY

CITY           SKY/WX    TMP DP  RH WIND       PRES   REMARKS
LOUISVILLE/SDF CLOUDY    47  43  86 N5        30.00S
LOUISVILLE/LOU CLOUDY    46  43  89 NW3       30.01S
FORT KNOX      CLOUDY    45  43  93 W3        29.99S
$$

KYZ035>037-039>044-047>052-055>060-089>105-311300-
NORTHEAST KENTUCKY

CITY           SKY/WX    TMP DP  RH WIND       PRES   REMARKS
LEXINGTON      LGT RAIN  46  42  86 CALM      29.98F
COVINGTON      CLOUDY    44  40  85 W3        29.97F
FRANKFORT      CLOUDY    43  41  93 CALM      29.99S FOG
$$

KYZ054-064>069-076>088-106>120-311300-
SOUTHEAST KENTUCKY

CITY           SKY/WX    TMP DP  RH WIND       PRES   REMARKS
JACKSON        CLOUDY    40  36  86 CALM      29.97S
LONDON         CLOUDY    42  38  85 CALM      29.98S
SOMERSET       RAIN      41  41 100 CALM      30.00F
MIDDLESBORO    CLOUDY    37  37 100 CALM      29.99S
MONTICELLO     LGT RAIN  44  42  93 CALM      30.01S FOG
$$




USA.gov is the U.S. government's official web portal to all federal, state and local government web resources and services.